Гарлок

США     35°25′07″N   117°51′03″W
темп.,
°C
ветер,
м/с
пор.,
м/с
влажн.,
%
обл.,
%
осадки,
мм/ч
давл.,
гПа
погр.,
м
19 апреля, пн
пн1923:00+17зюз33170 0.0 101713
02:00+14зюз22320 0.0 101710
05:00+12з22368 0.0 101710
08:00+17зюз22255 0.0 1017114
11:00+23юз34145 0.0 10161084
14:00+27ююз3591 0.0 10122960
17:00+26з109100 0.0 10101837
20:00+21зюз45170 0.0 101073
20 апреля, вт
вт2023:00+18юз33231 0.0 101129
02:00+15зюз22274 0.0 101112
05:00+14зюз22290 0.0 101013
08:00+17юз23242 0.0 1011178
11:00+23ююз44145 0.0 10091154
14:00+28зюз10108100 0.0 10042704
17:00+26зюз111290 0.0 10031988
20:00+20юз712193 0.0 1004376
21 апреля, ср
ср2123:00+15ююз5740100 0.0 1005147
02:00+13юз58325 0.0 1004135
05:00+10юз710520 0.0 1005178
08:00+12юз34510 0.0 1007396
11:00+18з23280 0.0 10061175
14:00+23ююз44173 0.0 10043013
17:00+23юз75213 0.0 10022589
20:00+18зюз34320 0.0 1004102
22 апреля, чт
чт2223:00+14юз344739 0.1 1007116
02:00+12ююз33578 0.0 100747
05:00+10ю226585 0.0 100915
08:00+13юз22537 0.0 1010213
11:00+19ю22281 0.0 10101122
14:00+23ю13140 0.0 10073074
17:00+23з97211 0.0 10062390
20:00+19зюз46250 0.0 1007130
23 апреля, пт
пт2323:00+16зюз22310 0.0 100819
02:00+14зюз22350 0.0 100914
05:00+12юз22393 0.0 101016
08:00+15юз23345 0.0 1011247
11:00+21ююз332285 0.0 10101149
14:00+27ююз35135 0.0 10072540
17:00+26з88130 0.0 10061767
20:00+21юз68190 0.0 1007192